owner,sensor,date,latitude,longitude,vertical_datum,wind_speed,wind_to_direction,wind_speed_of_gust,qcFlag 
TABS,ioos:station:wmo:42044:1,2019-12-01T05:00:00Z,26.1914,-97.0507,0.0,3.67,200.1,4.54,'11111222,11111222,11111222' 
TABS,ioos:station:wmo:42044:1,2019-12-01T06:00:00Z,26.1914,-97.0507,0.0,5.04,203.1,6.81,'11111222,11111222,11111222' 
TABS,ioos:station:wmo:42044:1,2019-12-01T07:00:00Z,26.1914,-97.0507,0.0,4.65,194.7,5.78,'11111222,11111222,11111222' 
TABS,ioos:station:wmo:42044:1,2019-12-01T08:00:00Z,26.1914,-97.0507,0.0,3.74,199.3,5.19,'11111222,11111222,11111222' 
TABS,ioos:station:wmo:42044:1,2019-12-01T09:00:00Z,26.1914,-97.0507,0.0,0.82,207.5,1.44,'11111222,11111222,11111222' 
TABS,ioos:station:wmo:42044:1,2019-12-01T10:00:00Z,26.1914,-97.0507,0.0,2.11,304.5,3.77,'11111222,11111222,11111222' 
TABS,ioos:station:wmo:42044:1,2019-12-01T11:00:00Z,26.1914,-97.0507,0.0,1.6,258.1,2.33,'11111222,11111222,11111222' 
TABS,ioos:station:wmo:42044:1,2019-12-01T12:00:00Z,26.1914,-97.0507,0.0,4.2,345.7,6.25,'11111222,11111222,11111222' 
TABS,ioos:station:wmo:42044:1,2019-12-01T13:00:00Z,26.1914,-97.0507,0.0,10.73,25.4,12.94,'11111222,11111222,11111222' 
TABS,ioos:station:wmo:42044:1,2019-12-01T14:00:00Z,26.1914,-97.0507,0.0,11.66,19.2,15.43,'11111222,11111222,11111222' 
TABS,ioos:station:wmo:42044:1,2019-12-01T15:00:00Z,26.1914,-97.0507,0.0,10.74,19.4,13.52,'11111222,11111222,11111222' 
TABS,ioos:station:wmo:42044:1,2019-12-01T15:30:00Z,26.1914,-97.0507,0.0,10.61,24.2,13.02,'11111222,11111222,11111222' 
TABS,ioos:station:wmo:42044:1,2019-12-01T17:00:00Z,26.1914,-97.0507,0.0,10.44,11.6,12.75,'11111222,11111222,11111222' 
TABS,ioos:station:wmo:42044:1,2019-12-01T18:00:00Z,26.1914,-97.0507,0.0,9.85,6.0,12.78,'11111222,11111222,11111222' 
TABS,ioos:station:wmo:42044:1,2019-12-01T18:30:00Z,26.1914,-97.0507,0.0,9.47,359.8,11.84,'11111222,11144222,11111222' 
TABS,ioos:station:wmo:42044:1,2019-12-01T20:00:00Z,26.1914,-97.0507,0.0,9.39,359.0,11.96,'11111222,11111222,11111222' 
TABS,ioos:station:wmo:42044:1,2019-12-01T21:00:00Z,26.1914,-97.0507,0.0,9.84,359.9,12.22,'11111222,11144222,11111222' 
TABS,ioos:station:wmo:42044:1,2019-12-01T22:00:00Z,26.1914,-97.0507,0.0,9.87,0.3,12.73,'11111222,11111222,11111222' 
TABS,ioos:station:wmo:42044:1,2019-12-01T23:00:00Z,26.1914,-97.0507,0.0,8.35,6.6,10.46,'11111222,11111222,11111222' 
TABS,ioos:station:wmo:42044:1,2019-12-01T23:30:00Z,26.1914,-97.0507,0.0,8.06,5.0,9.96,'11111222,11111222,11111222' 
TABS,ioos:station:wmo:42044:1,2019-12-02T05:00:00Z,26.1914,-97.0507,0.0,8.06,10.9,9.68,'11111222,11111222,11111222' 
TABS,ioos:station:wmo:42044:1,2019-12-02T05:30:00Z,26.1914,-97.0507,0.0,8.3,6.1,11.03,'11111222,11111222,11111222' 
TABS,ioos:station:wmo:42044:1,2019-12-02T07:00:00Z,26.1914,-97.0507,0.0,7.88,8.6,9.66,'11111222,11111222,11111222' 
TABS,ioos:station:wmo:42044:1,2019-12-02T08:00:00Z,26.1914,-97.0507,0.0,8.26,13.0,10.4,'11111222,11111222,11111222' 
TABS,ioos:station:wmo:42044:1,2019-12-02T09:00:00Z,26.1914,-97.0507,0.0,8.73,19.6,11.0,'11111222,11111222,11111222' 
TABS,ioos:station:wmo:42044:1,2019-12-02T10:30:00Z,26.1914,-97.0507,0.0,8.35,13.1,10.27,'11111222,11111222,11111222' 
TABS,ioos:station:wmo:42044:1,2019-12-02T11:30:00Z,26.1914,-97.0507,0.0,7.75,12.1,9.95,'11111222,11111222,11111222' 
TABS,ioos:station:wmo:42044:1,2019-12-02T12:30:00Z,26.1914,-97.0507,0.0,7.89,12.4,10.1,'11111222,11111222,11111222' 
TABS,ioos:station:wmo:42044:1,2019-12-02T15:00:00Z,26.1914,-97.0507,0.0,7.49,12.8,9.43,'11111222,11111222,11111222' 
TABS,ioos:station:wmo:42044:1,2019-12-02T16:00:00Z,26.1914,-97.0507,0.0,6.95,12.0,9.03,'11111222,11111222,11111222' 
TABS,ioos:station:wmo:42044:1,2019-12-02T16:30:00Z,26.1914,-97.0507,0.0,7.16,13.4,8.89,'11111222,11111222,11111222' 
TABS,ioos:station:wmo:42044:1,2019-12-02T17:30:00Z,26.1914,-97.0507,0.0,7.31,13.8,9.09,'11111222,11111222,11111222' 
TABS,ioos:station:wmo:42044:1,2019-12-02T18:30:00Z,26.1914,-97.0507,0.0,6.88,15.3,8.72,'11111222,11111222,11111222' 
TABS,ioos:station:wmo:42044:1,2019-12-02T19:30:00Z,26.1914,-97.0507,0.0,6.29,17.3,8.68,'11111222,11111222,11111222' 
TABS,ioos:station:wmo:42044:1,2019-12-02T21:00:00Z,26.1914,-97.0507,0.0,6.31,26.8,8.18,'11111222,11111222,11111222' 
TABS,ioos:station:wmo:42044:1,2019-12-02T22:00:00Z,26.1914,-97.0507,0.0,5.5,23.5,7.02,'11111222,11111222,11111222' 
TABS,ioos:station:wmo:42044:1,2019-12-02T23:00:00Z,26.1914,-97.0507,0.0,4.41,13.1,6.07,'11111222,11111222,11111222' 
TABS,ioos:station:wmo:42044:1,2019-12-02T23:30:00Z,26.1914,-97.0507,0.0,3.84,13.9,5.74,'11111222,11111222,11111222' 
TABS,ioos:station:wmo:42044:1,2019-12-03T05:00:00Z,26.1914,-97.0507,0.0,0.77,76.2,2.01,'11111222,11111222,11111222' 
TABS,ioos:station:wmo:42044:1,2019-12-03T06:00:00Z,26.1914,-97.0507,0.0,1.24,161.2,2.02,'11111222,11111222,11111222' 
TABS,ioos:station:wmo:42044:1,2019-12-03T07:00:00Z,26.1914,-97.0507,0.0,0.69,135.3,1.26,'11111222,11111222,11111222' 
TABS,ioos:station:wmo:42044:1,2019-12-03T08:00:00Z,26.1914,-97.0507,0.0,0.15,89.9,0.73,'11111222,11111222,11111222' 
TABS,ioos:station:wmo:42044:1,2019-12-03T09:00:00Z,26.1914,-97.0507,0.0,2.36,306.2,3.69,'11111222,11111222,11111222' 
TABS,ioos:station:wmo:42044:1,2019-12-03T10:00:00Z,26.1914,-97.0507,0.0,2.04,339.6,2.87,'11111222,11111222,11111222' 
TABS,ioos:station:wmo:42044:1,2019-12-03T11:00:00Z,26.1914,-97.0507,0.0,2.19,40.3,3.11,'11111222,11111222,11111222' 
TABS,ioos:station:wmo:42044:1,2019-12-03T12:00:00Z,26.1914,-97.0507,0.0,2.69,50.0,3.71,'11111222,11111222,11111222' 
TABS,ioos:station:wmo:42044:1,2019-12-03T13:00:00Z,26.1914,-97.0507,0.0,4.19,40.9,5.08,'11111222,11111222,11111222' 
TABS,ioos:station:wmo:42044:1,2019-12-03T14:00:00Z,26.1914,-97.0507,0.0,2.52,73.1,3.23,'11111222,11111222,11111222' 
TABS,ioos:station:wmo:42044:1,2019-12-03T15:00:00Z,26.1914,-97.0507,0.0,1.47,105.0,2.03,'11111222,11111222,11111222' 
TABS,ioos:station:wmo:42044:1,2019-12-03T16:00:00Z,26.1914,-97.0507,0.0,1.29,143.0,1.72,'11111222,11111222,11111222' 
TABS,ioos:station:wmo:42044:1,2019-12-03T17:00:00Z,26.1914,-97.0507,0.0,1.6,170.6,2.3,'11111222,11111222,11111222' 
TABS,ioos:station:wmo:42044:1,2019-12-03T18:00:00Z,26.1914,-97.0507,0.0,3.1,175.3,4.04,'11111222,11111222,11111222' 
TABS,ioos:station:wmo:42044:1,2019-12-03T19:00:00Z,26.1914,-97.0507,0.0,2.42,169.1,3.04,'11111222,11111222,11111222' 
TABS,ioos:station:wmo:42044:1,2019-12-03T20:00:00Z,26.1914,-97.0507,0.0,2.51,152.5,3.37,'11111222,11111222,11111222' 
TABS,ioos:station:wmo:42044:1,2019-12-03T21:00:00Z,26.1914,-97.0507,0.0,3.37,148.9,4.38,'11111222,11111222,11111222' 
TABS,ioos:station:wmo:42044:1,2019-12-03T22:00:00Z,26.1914,-97.0507,0.0,3.28,128.2,3.99,'11111222,11111222,11111222' 
TABS,ioos:station:wmo:42044:1,2019-12-03T23:00:00Z,26.1914,-97.0507,0.0,3.96,146.7,4.67,'11111222,11111222,11111222' 
TABS,ioos:station:wmo:42044:1,2019-12-03T23:30:00Z,26.1914,-97.0507,0.0,4.43,148.0,5.5,'11111222,11111222,11111222' 
TABS,ioos:station:wmo:42044:1,2019-12-04T05:00:00Z,26.1914,-97.0507,0.0,1.26,127.2,1.65,'11111222,11111222,11111222' 
TABS,ioos:station:wmo:42044:1,2019-12-04T06:00:00Z,26.1914,-97.0507,0.0,0.1,143.8,2.03,'11111222,11111222,11111222' 
TABS,ioos:station:wmo:42044:1,2019-12-04T07:00:00Z,26.1914,-97.0507,0.0,0.2,163.1,1.87,'11111222,11111222,11111222' 
TABS,ioos:station:wmo:42044:1,2019-12-04T08:00:00Z,26.1914,-97.0507,0.0,0.19,166.6,0.86,'11111222,11111222,11111222' 
TABS,ioos:station:wmo:42044:1,2019-12-04T11:00:00Z,26.1914,-97.0507,0.0,0.43,10.6,1.65,'11111222,11111222,11111222' 
TABS,ioos:station:wmo:42044:1,2019-12-04T12:00:00Z,26.1914,-97.0507,0.0,0.73,353.3,2.35,'11111222,11111222,11111222' 
TABS,ioos:station:wmo:42044:1,2019-12-04T13:00:00Z,26.1914,-97.0507,0.0,2.21,18.9,2.69,'11111222,11111222,11111222' 
TABS,ioos:station:wmo:42044:1,2019-12-04T13:30:00Z,26.1914,-97.0507,0.0,0.2,24.3,2.73,'11111222,11111222,11111222' 
TABS,ioos:station:wmo:42044:1,2019-12-04T15:00:00Z,26.1914,-97.0507,0.0,1.67,9.4,2.96,'11111222,11111222,11111222' 
TABS,ioos:station:wmo:42044:1,2019-12-04T17:00:00Z,26.1914,-97.0507,0.0,2.54,348.5,4.59,'11111222,11111222,11111222' 
TABS,ioos:station:wmo:42044:1,2019-12-04T18:00:00Z,26.1914,-97.0507,0.0,1.65,350.9,4.01,'11111222,11111222,11111222' 
TABS,ioos:station:wmo:42044:1,2019-12-04T19:30:00Z,26.1914,-97.0507,0.0,0.94,353.5,2.87,'11111222,11111222,11111222' 
 
DISCLAIMER: The Gulf of Mexico Coastal and Ocean Observing (GCOOS) Data Portal aggregates data from the regional data providers for the convenience of all data users. Data published on this website should not be used for navigation or certain other uses as we cannot guarantee data accuracy or availability. The data and delivery services are provided 'as is' without warranty of any kind. Data Source: Gulf of Mexico Coastal Ocean Observing System Data Portal (http://data.gcoos.org/) 
